When you browse on this site, cookies collect data to enhance your experience and personalize the content and advertising you see.
Visit our Privacy Policy to learn more. By continuing to use the site, you agree to this use of cookies and data.
  • In Hungary
  • List of Countries
  • For 7 days
  • Water Temperature
  • Satellite Maps
  • Weather Map
  • News
  • Weather Widgets
  • user-avatar
    Login

    Hourly Weather Aarschot

    Today, 18 November, Sunday

    Time Temperature Precipitation Wind Pressure Humidity
    00:00 +1°C° 0 mm 4 mps 768 mmHg 67%
    01:00 +1°C° 0 mm 4 mps 768 mmHg 67%
    02:00 +1°C° 0 mm 4 mps 768 mmHg 68%
    03:00 +1°C° 0 mm 4 mps 768 mmHg 68%
    04:00 0°C° 0 mm 4 mps 768 mmHg 68%
    05:00 0°C° 0 mm 4 mps 768 mmHg 68%
    06:00 0°C° 0 mm 4 mps 767 mmHg 69%
    07:00 0°C° 0 mm 4 mps 767 mmHg 66%
    08:00 +1°C° 0 mm 4 mps 767 mmHg 63%
    09:00 +1°C° 0 mm 5 mps 767 mmHg 59%
    10:00 +2°C° 0 mm 5 mps 767 mmHg 56%
    11:00 +5°C° 0 mm 5 mps 767 mmHg 52%
    12:00 +6°C° 0 mm 5 mps 766 mmHg 48%
    13:00 +5°C° 0 mm 5 mps 766 mmHg 49%
    14:00 +5°C° 0 mm 5 mps 766 mmHg 49%
    15:00 +5°C° 0 mm 5 mps 765 mmHg 50%
    16:00 +3°C° 0 mm 5 mps 765 mmHg 49%
    17:00 +2°C° 0 mm 5 mps 765 mmHg 48%
    18:00 +1°C° 0 mm 5 mps 765 mmHg 48%
    19:00 +1°C° 0 mm 5 mps 765 mmHg 49%
    20:00 +1°C° 0 mm 5 mps 765 mmHg 49%
    21:00 +1°C° 0 mm 5 mps 765 mmHg 50%
    22:00 0°C° 0 mm 5 mps 765 mmHg 58%
    23:00 0°C° 0 mm 5 mps 765 mmHg 66%

    Tomorrow, 19 November, Monday

    Time Temperature Precipitation Wind Pressure Humidity
    00:00 0°C° 0 mm 5 mps 764 mmHg 74%
    01:00 0°C° 0 mm 5 mps 764 mmHg 79%
    02:00 0°C° 0 mm 5 mps 764 mmHg 85%
    03:00 0°C° 0 mm 5 mps 763 mmHg 90%
    04:00 +1°C° 0 mm 5 mps 763 mmHg 89%
    05:00 +1°C° 0 mm 5 mps 763 mmHg 87%
    06:00 +2°C° 0 mm 5 mps 762 mmHg 86%
    07:00 +2°C° 0 mm 6 mps 762 mmHg 82%
    08:00 +3°C° 0 mm 6 mps 762 mmHg 78%
    09:00 +3°C° 0 mm 7 mps 762 mmHg 75%
    10:00 +4°C° 0 mm 7 mps 761 mmHg 69%
    11:00 +4°C° 0 mm 8 mps 761 mmHg 64%
    12:00 +5°C° 0 mm 8 mps 760 mmHg 58%
    13:00 +5°C° 0 mm 8 mps 760 mmHg 60%
    14:00 +4°C° 0 mm 7 mps 759 mmHg 61%
    15:00 +4°C° 0 mm 6 mps 759 mmHg 63%
    16:00 +3°C° 0 mm 6 mps 758 mmHg 64%
    17:00 +3°C° 0 mm 6 mps 758 mmHg 66%
    18:00 +2°C° 0 mm 6 mps 758 mmHg 68%
    19:00 +2°C° 0 mm 6 mps 758 mmHg 69%
    20:00 +1°C° 0 mm 6 mps 757 mmHg 70%
    21:00 +1°C° 0 mm 6 mps 757 mmHg 72%
    22:00 +1°C° 0 mm 6 mps 757 mmHg 72%
    23:00 +1°C° 0 mm 6 mps 756 mmHg 71%

    Day after tomorrow, 20 November, Tuesday

    Time Temperature Precipitation Wind Pressure Humidity
    00:00 +1°C° 0 mm 6 mps 756 mmHg 71%
    01:00 +1°C° 0 mm 6 mps 756 mmHg 71%
    02:00 -1°C° 0 mm 6 mps 755 mmHg 70%
    03:00 -1°C° 0 mm 6 mps 755 mmHg 70%
    04:00 -1°C° 0 mm 6 mps 754 mmHg 70%
    05:00 -1°C° 0 mm 6 mps 754 mmHg 69%
    06:00 -1°C° 0 mm 6 mps 754 mmHg 69%
    07:00 +1°C° 0 mm 6 mps 753 mmHg 67%
    08:00 0°C° 0 mm 7 mps 753 mmHg 66%
    09:00 +2°C° 0 mm 7 mps 753 mmHg 64%
    10:00 +2°C° 0 mm 7 mps 753 mmHg 62%
    11:00 +3°C° 0 mm 7 mps 752 mmHg 60%
    12:00 +3°C° 0 mm 7 mps 752 mmHg 58%
    13:00 +3°C° 0 mm 6 mps 752 mmHg 59%
    14:00 +3°C° 0 mm 6 mps 751 mmHg 61%
    15:00 +3°C° 0 mm 5 mps 751 mmHg 62%
    16:00 +2°C° 0 mm 5 mps 751 mmHg 67%
    17:00 +1°C° 0 mm 5 mps 752 mmHg 71%
    18:00 0°C° 0 mm 5 mps 752 mmHg 76%
    19:00 0°C° 0 mm 4 mps 752 mmHg 77%
    20:00 0°C° 0 mm 4 mps 752 mmHg 78%
    21:00 0°C° 0 mm 4 mps 752 mmHg 80%
    22:00 0°C° 0 mm 4 mps 752 mmHg 81%
    23:00 -1°C° 0 mm 4 mps 752 mmHg 83%

    21 November, Wednesday

    Time Temperature Precipitation Wind Pressure Humidity
    00:00 0°C° 0 mm 3 mps 753 mmHg 85%
    01:00 0°C° 0 mm 3 mps 753 mmHg 86%
    02:00 0°C° 0 mm 3 mps 753 mmHg 88%
    03:00 -1°C° 0 mm 3 mps 753 mmHg 89%
    04:00 0°C° 0 mm 3 mps 753 mmHg 87%
    05:00 0°C° 0 mm 3 mps 753 mmHg 86%
    06:00 +1°C° 0 mm 3 mps 753 mmHg 84%
    07:00 +1°C° 0 mm 3 mps 754 mmHg 81%
    08:00 +2°C° 0 mm 3 mps 754 mmHg 78%
    09:00 +3°C° 0 mm 3 mps 754 mmHg 75%
    10:00 +3°C° 0 mm 3 mps 755 mmHg 73%
    11:00 +5°C° 0 mm 2 mps 755 mmHg 71%
    12:00 +6°C° 0 mm 2 mps 755 mmHg 69%
    13:00 +6°C° 0 mm 2 mps 755 mmHg 70%
    14:00 +6°C° 0 mm 2 mps 755 mmHg 71%
    15:00 +6°C° 0 mm 2 mps 755 mmHg 73%
    16:00 +5°C° 0 mm 2 mps 756 mmHg 76%
    17:00 +4°C° 0 mm 2 mps 756 mmHg 79%
    18:00 +4°C° 0 mm 2 mps 757 mmHg 82%
    19:00 +4°C° 0 mm 2 mps 757 mmHg 83%
    20:00 +4°C° 0 mm 2 mps 757 mmHg 83%
    21:00 +4°C° 0 mm 2 mps 758 mmHg 84%
    22:00 +4°C° 0.1 mm 2 mps 758 mmHg 85%
    23:00 +5°C° 0.1 mm 1 mps 758 mmHg 86%

    22 November, Thursday

    Time Temperature Precipitation Wind Pressure Humidity
    00:00 +4°C° 0.1 mm 1 mps 758 mmHg 87%
    01:00 +4°C° 0.1 mm 1 mps 758 mmHg 88%
    02:00 +4°C° 0.1 mm 1 mps 758 mmHg 89%
    03:00 +4°C° 0.1 mm 1 mps 758 mmHg 90%
    04:00 +4°C° 0 mm 1 mps 759 mmHg 91%
    05:00 +3°C° 0 mm 1 mps 759 mmHg 92%
    06:00 +3°C° 0 mm 1 mps 759 mmHg 93%
    07:00 +3°C° 0 mm 1 mps 759 mmHg 91%
    08:00 +4°C° 0 mm 1 mps 759 mmHg 89%
    09:00 +4°C° 0 mm 1 mps 760 mmHg 87%
    10:00 +5°C° 0 mm 1 mps 760 mmHg 82%
    11:00 +7°C° 0 mm 1 mps 760 mmHg 77%
    12:00 +8°C° 0 mm 1 mps 760 mmHg 72%
    13:00 +7°C° 0 mm 1 mps 760 mmHg 74%
    14:00 +7°C° 0 mm 1 mps 760 mmHg 76%
    15:00 +6°C° 0 mm 0 mps 760 mmHg 78%
    16:00 +6°C° 0 mm 1 mps 761 mmHg 81%
    17:00 +5°C° 0 mm 1 mps 761 mmHg 85%
    18:00 +4°C° 0 mm 1 mps 761 mmHg 88%
    19:00 +4°C° 0 mm 1 mps 761 mmHg 89%
    20:00 +4°C° 0 mm 1 mps 762 mmHg 89%
    21:00 +3°C° 0 mm 2 mps 762 mmHg 90%
    22:00 +3°C° 0 mm 1 mps 762 mmHg 90%
    23:00 +3°C° 0 mm 1 mps 762 mmHg 91%

    23 November, Friday

    Time Temperature Precipitation Wind Pressure Humidity
    00:00 +3°C° 0 mm 1 mps 762 mmHg 91%
    01:00 +3°C° 0 mm 1 mps 762 mmHg 91%
    02:00 +3°C° 0 mm 1 mps 762 mmHg 91%
    03:00 +3°C° 0 mm 1 mps 762 mmHg 91%
    04:00 +2°C° 0 mm 2 mps 763 mmHg 91%
    05:00 +2°C° 0 mm 2 mps 763 mmHg 92%
    06:00 +2°C° 0 mm 2 mps 763 mmHg 92%
    07:00 +3°C° 0 mm 2 mps 763 mmHg 89%
    08:00 +4°C° 0 mm 2 mps 763 mmHg 87%
    09:00 +4°C° 0 mm 2 mps 763 mmHg 85%
    10:00 +6°C° 0 mm 2 mps 763 mmHg 81%
    11:00 +7°C° 0 mm 2 mps 763 mmHg 76%
    12:00 +10°C° 0 mm 1 mps 763 mmHg 72%
    13:00 +8°C° 0 mm 2 mps 762 mmHg 75%
    14:00 +8°C° 0 mm 2 mps 762 mmHg 78%
    15:00 +7°C° 0 mm 2 mps 762 mmHg 81%
    16:00 +7°C° 0 mm 2 mps 762 mmHg 84%
    17:00 +6°C° 0 mm 2 mps 762 mmHg 87%
    18:00 +5°C° 0 mm 2 mps 762 mmHg 90%
    19:00 +5°C° 0 mm 2 mps 762 mmHg 90%
    20:00 +4°C° 0 mm 2 mps 762 mmHg 90%
    21:00 +4°C° 0 mm 2 mps 762 mmHg 90%
    22:00 +5°C° 0 mm 1 mps 762 mmHg 90%
    23:00 +5°C° 0 mm 1 mps 762 mmHg 90%
    Show more